BCS4127 LOWL-EDDP

Flight info

Callsign BCS4127
Flight time 0h 43m
Altitude 30000
Route LIDSI DCT LAMSI L604 MOOCE/N0452F240 L604 ANELA M726 LASGA T953 VOCIM/N0466F290 T954 GOXLI
Aircraft A306/H-SDE3FGHIRWY/LB1

Departure

Time 2026-04-22 17:54
Airport Linz-Hörsching Airport (LOWL)

Arrival

Time 2026-04-22 18:37
Airport Leipzig/Halle Airport (EDDP)
Time Latitude Longitude Altitude Speed Heading
2026-04-22 17:30 48.23866 14.19016 986 ft 0 kts 268°
2026-04-22 17:48 48.23862 14.18985 993 ft 7 kts 251°
2026-04-22 17:48 48.23795 14.18947 991 ft 14 kts 175°
2026-04-22 17:48 48.23752 14.19088 993 ft 19 kts 89°
2026-04-22 17:48 48.23760 14.19299 988 ft 17 kts 86°
2026-04-22 17:49 48.23767 14.19481 989 ft 15 kts 85°
2026-04-22 17:49 48.23735 14.19612 988 ft 14 kts 147°
2026-04-22 17:49 48.23639 14.19667 993 ft 15 kts 160°
2026-04-22 17:49 48.23536 14.19727 991 ft 16 kts 159°
2026-04-22 17:50 48.23428 14.19790 990 ft 16 kts 158°
2026-04-22 17:50 48.23368 14.19869 989 ft 11 kts 110°
2026-04-22 17:50 48.23366 14.19990 986 ft 12 kts 86°
2026-04-22 17:50 48.23372 14.20122 982 ft 15 kts 87°
2026-04-22 17:51 48.23377 14.20282 981 ft 16 kts 91°
2026-04-22 17:51 48.23385 14.20390 990 ft 7 kts 22°
2026-04-22 17:51 48.23398 14.20362 984 ft 3 kts 261°
2026-04-22 17:51 48.23383 14.20305 991 ft 9 kts 248°
2026-04-22 17:52 48.23376 14.20239 981 ft 1 kts 265°
2026-04-22 17:52 48.23375 14.20222 982 ft 0 kts 266°
2026-04-22 17:52 48.23375 14.20221 982 ft 0 kts 265°
2026-04-22 17:53 48.23375 14.20219 989 ft 2 kts 266°
2026-04-22 17:53 48.23365 14.19984 987 ft 59 kts 266°
2026-04-22 17:53 48.23330 14.18994 986 ft 129 kts 266°
2026-04-22 17:53 48.23276 14.17413 1242 ft 167 kts 268°
2026-04-22 17:54 48.23225 14.15667 2226 ft 170 kts 270°
2026-04-22 17:54 48.23177 14.13781 2843 ft 197 kts 275°
2026-04-22 17:54 48.23569 14.11674 3287 ft 227 kts 301°
2026-04-22 17:54 48.24547 14.09643 3901 ft 249 kts 314°
2026-04-22 17:55 48.25814 14.07838 4985 ft 253 kts 321°
2026-04-22 17:55 48.27176 14.06197 6103 ft 256 kts 323°
2026-04-22 17:55 48.28630 14.04539 7243 ft 260 kts 324°
2026-04-22 17:55 48.30066 14.02894 8332 ft 264 kts 324°
2026-04-22 17:56 48.31505 14.01202 9431 ft 268 kts 323°
2026-04-22 17:56 48.32974 13.99423 10423 ft 277 kts 323°
2026-04-22 17:56 48.34506 13.97539 10875 ft 301 kts 323°
2026-04-22 17:56 48.36186 13.95444 11214 ft 325 kts 323°
2026-04-22 17:57 48.37977 13.93189 11576 ft 347 kts 323°
2026-04-22 17:57 48.39873 13.90798 11953 ft 364 kts 323°
2026-04-22 17:57 48.41832 13.88315 12583 ft 372 kts 322°
2026-04-22 17:57 48.43823 13.85778 13347 ft 377 kts 323°
2026-04-22 17:58 48.45834 13.83220 14101 ft 382 kts 323°
2026-04-22 17:58 48.47877 13.80617 14771 ft 386 kts 323°
2026-04-22 17:58 48.49941 13.77990 15480 ft 390 kts 323°
2026-04-22 17:58 48.52025 13.75337 16171 ft 394 kts 323°
2026-04-22 17:59 48.54122 13.72666 16879 ft 397 kts 323°
2026-04-22 17:59 48.56191 13.70031 17546 ft 401 kts 323°
2026-04-22 17:59 48.58340 13.67294 18197 ft 405 kts 323°
2026-04-22 17:59 48.60477 13.64570 18797 ft 409 kts 323°
2026-04-22 18:00 48.61951 13.62689 19146 ft 412 kts 323°
2026-04-22 18:00 48.64868 13.58956 19813 ft 418 kts 323°
2026-04-22 18:00 48.67040 13.55987 20296 ft 423 kts 321°
2026-04-22 18:00 48.69169 13.52867 20772 ft 428 kts 319°
2026-04-22 18:01 48.71189 13.49804 21246 ft 432 kts 319°
2026-04-22 18:01 48.73299 13.46569 21724 ft 436 kts 319°
2026-04-22 18:01 48.75438 13.43289 22194 ft 440 kts 319°
2026-04-22 18:01 48.77599 13.39990 22638 ft 443 kts 319°
2026-04-22 18:02 48.79759 13.36710 23099 ft 447 kts 319°
2026-04-22 18:02 48.81963 13.33374 23554 ft 450 kts 319°
2026-04-22 18:02 48.84196 13.30002 23962 ft 454 kts 319°
2026-04-22 18:02 48.86249 13.27145 24277 ft 454 kts 324°
2026-04-22 18:03 48.88721 13.24132 24629 ft 456 kts 326°
2026-04-22 18:03 48.91242 13.21218 24954 ft 458 kts 327°
2026-04-22 18:03 48.93820 13.18330 25298 ft 460 kts 328°
2026-04-22 18:03 48.96421 13.15454 25643 ft 463 kts 328°
2026-04-22 18:04 48.99040 13.12564 25944 ft 466 kts 328°
2026-04-22 18:04 49.01636 13.09688 26251 ft 469 kts 328°
2026-04-22 18:04 49.04281 13.06746 26558 ft 472 kts 328°
2026-04-22 18:04 49.06898 13.03823 26833 ft 474 kts 328°
2026-04-22 18:05 49.09561 13.00837 27102 ft 477 kts 328°
2026-04-22 18:05 49.12237 12.97829 27446 ft 478 kts 328°
2026-04-22 18:05 49.14907 12.94823 27860 ft 478 kts 328°
2026-04-22 18:05 49.17584 12.91803 28254 ft 477 kts 328°
2026-04-22 18:06 49.20256 12.88785 28635 ft 478 kts 328°
2026-04-22 18:06 49.22860 12.85840 29015 ft 478 kts 328°
2026-04-22 18:06 49.25531 12.82816 29416 ft 478 kts 328°
2026-04-22 18:06 49.28159 12.79838 29815 ft 478 kts 328°
2026-04-22 18:07 49.30831 12.76805 30178 ft 479 kts 328°
2026-04-22 18:07 49.36187 12.70715 30279 ft 479 kts 328°
2026-04-22 18:08 49.41535 12.64614 30269 ft 479 kts 328°
2026-04-22 18:08 49.46741 12.58663 30274 ft 480 kts 328°
2026-04-22 18:09 49.52055 12.52570 30274 ft 480 kts 328°
2026-04-22 18:09 49.57407 12.46416 30276 ft 480 kts 328°
2026-04-22 18:10 49.62754 12.40250 30278 ft 480 kts 328°
2026-04-22 18:10 49.68072 12.34101 30284 ft 480 kts 327°
2026-04-22 18:11 49.73414 12.27907 30278 ft 480 kts 327°
2026-04-22 18:11 49.78763 12.21687 30277 ft 481 kts 327°
2026-04-22 18:12 49.84058 12.15513 30275 ft 481 kts 327°
2026-04-22 18:12 49.88388 12.10450 30283 ft 480 kts 327°
2026-04-22 18:13 49.94619 12.03144 30290 ft 481 kts 327°
2026-04-22 18:13 49.99955 11.96868 30292 ft 481 kts 327°
2026-04-22 18:14 50.05221 11.90660 30302 ft 481 kts 327°
2026-04-22 18:14 50.10541 11.84369 30298 ft 481 kts 327°
2026-04-22 18:15 50.15845 11.78078 30296 ft 481 kts 327°
2026-04-22 18:15 50.21126 11.71797 30296 ft 481 kts 327°
2026-04-22 18:16 50.26410 11.65494 30289 ft 481 kts 327°
2026-04-22 18:16 50.28934 11.62473 29720 ft 476 kts 327°
2026-04-22 18:16 50.31562 11.59324 28452 ft 478 kts 326°
2026-04-22 18:16 50.34206 11.56158 27296 ft 479 kts 326°
2026-04-22 18:17 50.36826 11.53009 26607 ft 469 kts 326°
2026-04-22 18:17 50.39379 11.49932 25926 ft 460 kts 326°
2026-04-22 18:17 50.41892 11.46902 25199 ft 453 kts 326°
2026-04-22 18:17 50.44375 11.43906 24492 ft 446 kts 326°
2026-04-22 18:18 50.46815 11.40961 23766 ft 441 kts 326°
2026-04-22 18:18 50.49227 11.38049 22992 ft 434 kts 326°
2026-04-22 18:18 50.51572 11.35229 22494 ft 427 kts 327°
2026-04-22 18:18 50.54109 11.32777 22213 ft 430 kts 337°
2026-04-22 18:19 50.56829 11.31205 21942 ft 425 kts 349°
2026-04-22 18:19 50.59740 11.30704 21675 ft 417 kts
2026-04-22 18:19 50.62579 11.31410 21414 ft 410 kts 19°
2026-04-22 18:19 50.65154 11.33249 21160 ft 405 kts 33°
2026-04-22 18:20 50.67283 11.36010 20898 ft 402 kts 46°
2026-04-22 18:20 50.69119 11.39331 20653 ft 400 kts 51°
2026-04-22 18:20 50.70879 11.42713 20398 ft 398 kts 51°
2026-04-22 18:20 50.72619 11.46064 20151 ft 397 kts 51°
2026-04-22 18:21 50.74352 11.49386 19905 ft 396 kts 51°
2026-04-22 18:21 50.76077 11.52685 19667 ft 395 kts 51°
2026-04-22 18:21 50.77764 11.55904 19427 ft 394 kts 51°
2026-04-22 18:21 50.79500 11.59216 19180 ft 392 kts 51°
2026-04-22 18:22 50.81245 11.62545 18949 ft 391 kts 51°
2026-04-22 18:22 50.82981 11.65859 18709 ft 390 kts 50°
2026-04-22 18:22 50.84705 11.69154 18448 ft 389 kts 50°
2026-04-22 18:22 50.86425 11.72447 17705 ft 387 kts 50°
2026-04-22 18:23 50.88126 11.75706 17254 ft 381 kts 50°
2026-04-22 18:23 50.89722 11.78767 16996 ft 381 kts 50°
2026-04-22 18:23 50.91391 11.81973 16767 ft 380 kts 50°
2026-04-22 18:24 50.94737 11.88412 15716 ft 377 kts 50°
2026-04-22 18:24 50.96390 11.91596 14947 ft 374 kts 50°
2026-04-22 18:24 50.99661 11.97914 13357 ft 366 kts 50°
2026-04-22 18:25 51.01177 12.00847 12602 ft 363 kts 50°
2026-04-22 18:25 51.02730 12.03855 11823 ft 359 kts 49°
2026-04-22 18:25 51.04306 12.06910 11072 ft 355 kts 49°
2026-04-22 18:26 51.07103 12.12347 10491 ft 327 kts 49°
2026-04-22 18:26 51.08506 12.15080 10282 ft 312 kts 49°
2026-04-22 18:26 51.09811 12.17623 10098 ft 299 kts 49°
2026-04-22 18:26 51.11091 12.20121 9880 ft 286 kts 49°
2026-04-22 18:27 51.12312 12.22504 9663 ft 276 kts 49°
2026-04-22 18:27 51.13494 12.24813 9296 ft 272 kts 49°
2026-04-22 18:27 51.14685 12.27138 8870 ft 270 kts 49°
2026-04-22 18:27 51.15873 12.29459 8436 ft 270 kts 49°
2026-04-22 18:28 51.17019 12.31701 8019 ft 269 kts 49°
2026-04-22 18:28 51.18198 12.34010 7604 ft 268 kts 49°
2026-04-22 18:28 51.19374 12.36315 7188 ft 267 kts 49°
2026-04-22 18:28 51.20539 12.38600 6799 ft 266 kts 49°
2026-04-22 18:29 51.21705 12.40888 6374 ft 265 kts 49°
2026-04-22 18:29 51.22861 12.43160 5955 ft 263 kts 49°
2026-04-22 18:29 51.24010 12.45421 5546 ft 262 kts 49°
2026-04-22 18:29 51.25050 12.47466 5356 ft 259 kts 49°
2026-04-22 18:30 51.26202 12.49736 5306 ft 260 kts 49°
2026-04-22 18:30 51.28462 12.54194 5306 ft 260 kts 49°
2026-04-22 18:30 51.29459 12.56162 5304 ft 260 kts 49°
2026-04-22 18:31 51.30555 12.58457 5198 ft 261 kts 55°
2026-04-22 18:31 51.31528 12.60906 4756 ft 260 kts 47°
2026-04-22 18:31 51.32957 12.62558 4387 ft 252 kts 19°
2026-04-22 18:31 51.34635 12.62934 4250 ft 239 kts 358°
2026-04-22 18:32 51.36253 12.62770 4117 ft 228 kts 355°
2026-04-22 18:32 51.37800 12.62534 3942 ft 220 kts 349°
2026-04-22 18:32 51.39153 12.61503 3710 ft 217 kts 318°
2026-04-22 18:32 51.39959 12.59595 3611 ft 211 kts 298°
2026-04-22 18:33 51.40516 12.57507 3501 ft 203 kts 295°
2026-04-22 18:33 51.41031 12.55436 3330 ft 197 kts 295°
2026-04-22 18:33 51.41533 12.53404 3051 ft 196 kts 295°
2026-04-22 18:33 51.42029 12.51392 2968 ft 198 kts 295°
2026-04-22 18:34 51.42424 12.49259 2959 ft 202 kts 281°
2026-04-22 18:34 51.42438 12.46993 2962 ft 205 kts 269°
2026-04-22 18:34 51.42291 12.44730 2900 ft 202 kts 268°
2026-04-22 18:34 51.42179 12.42519 2632 ft 195 kts 270°
2026-04-22 18:35 51.42087 12.40424 2369 ft 184 kts 270°
2026-04-22 18:35 51.41994 12.38398 2113 ft 181 kts 270°
2026-04-22 18:35 51.41904 12.36477 1860 ft 173 kts 270°
2026-04-22 18:35 51.41818 12.34643 1656 ft 161 kts 270°
2026-04-22 18:36 51.41738 12.32928 1424 ft 152 kts 270°
2026-04-22 18:36 51.41662 12.31286 1215 ft 140 kts 268°
2026-04-22 18:36 51.41592 12.29781 1034 ft 133 kts 268°
2026-04-22 18:36 51.41533 12.28299 828 ft 134 kts 268°
2026-04-22 18:37 51.41463 12.26825 669 ft 133 kts 266°
2026-04-22 18:37 51.41387 12.25369 491 ft 129 kts 265°
2026-04-22 18:37 51.41343 12.24465 482 ft 112 kts 265°
2026-04-22 18:37 51.41291 12.23301 470 ft 49 kts 264°
2026-04-22 18:38 51.41277 12.22967 473 ft 22 kts 264°
2026-04-22 18:38 51.41242 12.22731 469 ft 22 kts 250°
2026-04-22 18:38 51.41175 12.22539 467 ft 18 kts 236°
2026-04-22 18:39 51.41045 12.22320 466 ft 10 kts 188°
2026-04-22 18:39 51.41002 12.22366 467 ft 7 kts 114°
2026-04-22 18:39 51.41000 12.22379 467 ft 0 kts 108°
2026-04-22 18:39 51.40998 12.22391 464 ft 2 kts 102°
2026-04-22 18:40 51.40996 12.22414 467 ft 2 kts 97°
2026-04-22 18:40 51.40996 12.22472 468 ft 8 kts 87°
2026-04-22 18:40 51.41002 12.22591 471 ft 13 kts 85°
2026-04-22 18:40 51.41010 12.22754 473 ft 16 kts 85°
2026-04-22 18:41 51.41018 12.22923 474 ft 15 kts 85°
2026-04-22 18:41 51.41025 12.23088 477 ft 14 kts 88°
2026-04-22 18:41 51.40983 12.23184 472 ft 12 kts 175°
2026-04-22 18:41 51.40897 12.23193 469 ft 12 kts 176°
2026-04-22 18:42 51.40810 12.23204 472 ft 13 kts 175°
2026-04-22 18:42 51.40721 12.23215 468 ft 12 kts 175°
2026-04-22 18:42 51.40678 12.23181 468 ft 5 kts 251°
2026-04-22 18:42 51.40676 12.23141 470 ft 3 kts 265°
2026-04-22 18:43 51.40675 12.23126 470 ft 1 kts 265°
2026-04-22 18:43 51.40674 12.23111 470 ft 0 kts 265°